sat.trackr.live / text

‹ back to catalog

STARLINK-2549

NORAD 48314 · 2021-036AQ

PAYLOAD ACTIVE UNKNOWN

§ Identity

Operator
Country
US
Launch date
2021-04-29
Launch site
AFETR
Launch vehicle
Mass (kg)
RCS (m²)

Purposes: comms

External: N2YO · Heavens-Above · Gunter

§ Orbital elements

Epoch: 2026-09-19T13:27:12.340800Z

Period
94.01 min
Inclination
53.1579°
Eccentricity
0.0001405
Mean motion
15.31695517 rev/d
Perigee alt
469.8 km
Apogee alt
471.7 km
Semi-major
6,848.9 km
B*
-8.1527e-5
RAAN
268.6427°
Arg perigee
84.8242°
Mean anomaly
275.2919°
Rev number
29,788

§ Raw data

STARLINK-25491 48314U 21036AQ  26262.56055950 -.00002894  00000+0 -81527-4 0  99962 48314  53.1579 268.6427 0001405  84.8242 275.2919 15.31695517297887

JSON: /api/v1/satellites/48314 · /tle

For live sub-satellite position, see the globe view (requires WebGL).

§ Visibility from observer

Set your observer location to see the next 7 days of passes ≥ 10°. The values pass through the URL so the page stays shareable.

No JS? Fill the form by hand. The geolocation button needs JavaScript.